Regional Weather Roundup
Issued by NWS

Home | Current Version | Previous Version | Graphics & Text | Print | Product List | Glossary On
Versions: 1 2 3 4 5 6 7 8 9 10 11 12 13 14 15 16 17 18 19 20 21 22 23 24 25 26 27 28 29 30 31 32 33 34 35 36 37 38 39 40 41 42 43 44 45 46 47 48 49 50
000
ASUS43 KMKX 051421
RWRWI

WISCONSIN REGIONAL WEATHER ROUNDUP
NATIONAL WEATHER SERVICE MILWAUKEE/SULLIVAN WI
900 AM CDT TUE MAY 05 2015

NOTE: "FAIR" INDICATES FEW OR NO CLOUDS BELOW 12,000 FEET WITH NO
SIGNIFICANT WEATHER AND/OR OBSTRUCTIONS TO VISIBILITY.

WIZ001-002-006>008-014>016-023>028-051500-
NORTHWEST WISCONSIN

CITY           SKY/WX    TMP DP  RH WIND       PRES   REMARKS
SUPERIOR ARPT  SUNNY     50  33  52 NE7       30.30S
ASHLAND        SUNNY     56  36  47 CALM      30.31S
HAYWARD        SUNNY     58  32  37 E10       30.28S
SIREN          SUNNY     60  25  25 SE9       30.25S
CUMBERLAND     SUNNY     57  23  26 SE13G18   30.27R
RICE LAKE      SUNNY     58  25  28 E10       30.28S
CHETEK         SUNNY     57  33  39 E8G20     30.27S
LADYSMITH      SUNNY     58  25  28 E13       30.29F
EAU CLAIRE     PTSUNNY   57  29  34 SE7       30.26R
MENOMONIE      PTSUNNY   57  34  42 E10       30.26R
NEW RICHMOND   SUNNY     58  32  37 E12G17    30.24R
OSCEOLA        SUNNY     59  32  36 E13G18    30.26S
$$

WIZ003>005-009-010-017-018-051500-
NORTH CENTRAL WISCONSIN

CITY           SKY/WX    TMP DP  RH WIND       PRES   REMARKS
MANITOWISH WTR SUNNY     56  29  35 E5        30.31S
ARBOR VITAE    SUNNY     58  24  27 E10       30.31S
WOODRUFF       SUNNY     58  24  27 E10       30.31S
RHINELANDER    SUNNY     58  22  24 E12       30.32S
EAGLE RIVER    SUNNY     57  19  22 S7        30.32S
LAND O LAKES   SUNNY     58  27  29 SE6       30.33S
PHILLIPS       SUNNY     56  28  32 E7        30.29S
TOMAHAWK       SUNNY     57  27  31 E5        30.30F
MEDFORD        SUNNY     56  23  27 E9G16     30.29R
MERRILL        SUNNY     59  25  27 E6        30.30R
$$

WIZ029-030-035-036-043>047-051500-
CENTRAL WISCONSIN

CITY           SKY/WX    TMP DP  RH WIND       PRES   REMARKS
WAUSAU         SUNNY     56  29  35 SE13      30.29R
MOSINEE        SUNNY     54  34  47 E13       30.31R
MARSHFIELD     SUNNY     56  35  45 SE10      30.29R
STEVENS POINT  MOSUNNY   54  32  43 E10       30.30S
WAUPACA        MOSUNNY   53  37  53 NE6       30.30S
WAUTOMA        PTSUNNY   52  38  58 NE8       30.29R
WISC RAPIDS    PTSUNNY   57  33  40 SE10      30.30R
CAMP DOUGLAS   PTSUNNY   52  41  66 E9        30.26R
$$

WIZ011>013-019>022-031-037>040-048>050-051500-
NORTHEAST WISCONSIN

CITY           SKY/WX    TMP DP  RH WIND       PRES   REMARKS
ANTIGO         SUNNY     54  29  38 E13G20    30.32R
SHAWANO        MOSUNNY   55  35  47 E13       30.33S
OCONTO         PTSUNNY   52  37  57 E7        30.34S
STURGEON BAY   PTSUNNY   50  34  53 E10       30.36F
GREEN BAY      PTSUNNY   54  37  52 NE10      30.31F
MANITOWOC      CLOUDY    49  37  63 NE6       30.31F
APPLETON       PTSUNNY   52  34  50 E8        30.30S
CLINTONVILLE   MOSUNNY   54  36  50 NE8G16    30.31S
OSHKOSH        CLOUDY    53  39  59 E8        30.28R
$$

WIZ032>034-041-042-053>061-051500-
SOUTHWEST WISCONSIN

CITY           SKY/WX    TMP DP  RH WIND       PRES   REMARKS
LA CROSSE      LGT RAIN  54  48  80 SE10      30.24R
SPARTA         CLOUDY    53  38  57 E9        30.27R
VIROQUA        CLOUDY    49  49 100 E12       30.24R
BOSCOBEL       LGT RAIN  52  47  83 NE6       30.24R
PRAIRIE DU CHI LGT RAIN  53  48  83 E9G17     30.22R
PLATTEVILLE    CLOUDY    51  49  93 E17       30.21R
$$

WIZ056-057-062-063-064-067-068-051500-
SOUTH CENTRAL WISCONSIN

CITY           SKY/WX    TMP DP  RH WIND       PRES   REMARKS
REEDSBURG      DRIZZLE   47  46  95 E6        30.26S
BARABOO/DELLS  NOT AVBL
LONE ROCK      LGT RAIN  50  46  86 E9        30.25R
MINERAL POINT  LGT RAIN  50  46  87 E13       30.23R
MADISON        LGT RAIN  50  44  80 E7        30.25R
MIDDLETON      CLOUDY    50  46  85 E5        30.26R
WATERTOWN      DRIZZLE   49  47  91 E6        30.24S
MONROE         RAIN      48  46  93 NE10G16   30.23R
JANESVILLE     LGT RAIN  50  48  93 NE9       30.23R
$$

WIZ051-052-058>065-066-070>072-051500-
SOUTHEAST WISCONSIN

CITY           SKY/WX    TMP DP  RH WIND       PRES   REMARKS
MILWAUKEE      LGT RAIN  46  42  86 NE14      30.26R FOG
WAUKESHA       LGT RAIN  46  45  93 E8        30.25S
MILWAUKEE/TIMM LGT RAIN  48  43  81 E7        30.26F
RACINE         LGT RAIN  48  43  82 NE16G24   30.26R
BURLINGTON     RAIN      46  45  95 NE7       30.25R
KENOSHA        LGT RAIN  48  45  89 NE10      30.25R
FOND DU LAC    CLOUDY    51  37  58 E12       30.28R
SHEBOYGAN      CLOUDY    48  37  65 NE8       30.28F
WEST BEND      DRIZZLE   46  41  81 E8        30.27S
JUNEAU         RAIN      49  45  85 E7        30.27R
$$

LSZ147-162-051500-
LAKE SUPERIOR

STATION/POSITION TIME  TEMP    WIND        PRES    WAVE
                       AIR SEA DIR/SP/G            HT/PER
                 (UTC) (F)     (DEG/KT/KT) (MB)    (FT/S)
W MID LAKE BUOY  1350   40 35  170/  4/  4 1027.6R   0
DEVILS ISLAND    1400   52     100/  2/  4 1026.8R
PORT WING        1300   49      CALM  /  1 1026.1R
SAXON HARBOR     1340   45        CALM     1026.1R
$$

LMZ867-665-643>646-051500-
LAKE MICHIGAN

STATION/POSITION TIME  TEMP    WIND        PRES    WAVE
                       AIR SEA DIR/SP/G            HT/PER
                 (UTC) (F)     (DEG/KT/KT) (MB)    (FT/S)
CHAMBERS ISLAND  1300   46      30/  9/ 11 1027.4
NORTHPORT PIER   1400   48     110/  3/  6 1027.4S
SISTER BAY       1302          100/ 10/ 13   N/A
KEWAUNEE LAKESHO 1400   44      40/ 12/ 15 1025.7F
SHEBOYGAN LAKESH 1400   43      10/  7/  8 1026.4S
PORT WASHINGTON  1340   46      40/ 10/ 12 1025.7S
ATWATER BUOY     1400   44      50/  8/ 12 1025.7S
MILWAUKEE LAKESH 1400   45      50/ 11/ 13   N/A
KENOSHA   LAKESH 1400   45      20/ 12/ 14 1024.0R
$$

TC  - TEMPERATURE IN CELSIUS
VSB - VISIBILITY IN STATUTE MILES
WCI - WIND CHILL INDEX
HX  - HEAT INDEX




USA.gov is the U.S. government's official web portal to all federal, state and local government web resources and services.